Regional Weather Roundup
Issued by NWS

Home | Current Version | Previous Version | Text Only | Print | Product List | Glossary On
Versions: 1 2 3 4 5 6 7 8 9 10 11 12 13 14 15 16 17 18 19 20 21 22 23 24 25 26 27
000
ASCA42 TJSJ 242310
RWRPR
PUERTO RICO/U.S. VIRGIN ISLANDS HOURLY WEATHER ROUNDUP
NATIONAL WEATHER SERVICE SAN JUAN PR
700 PM AST TUE JAN 24 2017

PRZ001>002-007>008-010-250000-
PUERTO RICO

CITY           SKY/WX    TMP DP  RH WIND       PRES   REMARKS
SAN JUAN LMM   PTCLDY    82  66  57 S6        29.93R
AGUADILLA      MOCLDY    77  70  78 SW10      29.96R
CEIBA          CLEAR     77  73  88 SW6       29.96R
$$

VIZ001>002-250000-
U.S. VIRGIN ISLANDS

CITY           SKY/WX    TMP DP  RH WIND       PRES   REMARKS
CHARLOTTE AMA  PTCLDY    79  75  89 S12       29.94R
CHRISTIANSTED  PTCLDY    79  73  83 S5        29.96R
$$

HOURLY WEATHER ROUNDUP FOR THE NEWS MEDIA

CITY           SKY/WX    TMP DP  RH WIND       PRES   REMARKS
ORLANDO        CLEAR     69  37  30 W12       29.88R
NEW YORK       LGT RAIN  40  37  89 NW15      29.38R WCI  32
NEWARK         MOCLDY    40  35  83 NW16G28   29.40R WCI  31
CHICAGO        CLOUDY    36  31  82 S3        29.83R
HARTFORD       LGT RAIN  45  42  89 N15G25    29.20S FOG
BOSTON         DRIZZLE   37  36  96 N17G25    29.30R FOG     WCI  27
DALLAS         CLOUDY    78  51  38 S13G24    29.57S
PHILADELPHIA   CLOUDY    42  32  67 NW17G29   29.49R
LOS ANGELES    PTSUNNY   54  42  64 W9        30.02R
WASHINGTON DC  MOCLDY    46  37  71 NW16G23   29.60R



USA.gov is the U.S. government's official web portal to all federal, state and local government web resources and services.